Fairmont, MN

4:29 AM CST on February 21, 2017 (GMT -0600)
Fairmont Municipal

Weather History for KFRM - January, 2014

Change the Weather History Date:

Friday, January 3, 2014

  Actual Average Record
Temperature  
Mean Temperature 7 °F -  
Max Temperature 30 °F 21 °F 40 °F (1962)
Min Temperature -16 °F 5 °F -16 °F (2014)
Degree Days  
Heating Degree Days 58    
Moisture  
Dew Point 0 °F    
Average Humidity 61    
Maximum Humidity 100    
Minimum Humidity 21    
Precipitation  
Precipitation 0.00 in - - ()
Sea Level Pressure  
Sea Level Pressure 29.79 in    
Wind  
Wind Speed 19 mph (South)    
Max Wind Speed 34 mph    
Max Gust Speed 41 mph    
Visibility 8 miles    
Events      
Averages and records for this station are not official NWS values.
T = Trace of Precipitation, MM = Missing Value Source: NWS Daily Summary

Daily Weather History Graph

Daily Weather History Graph

Search for Another Location

Airport or City:

Trip Planner

Search our weather history database for the weather conditions in past years. The results will help you decide how hot, cold, wet, or windy it might be!

Date:

Astronomy

Jan. 03, 2014 Rise Set
Actual Time 7:51 AM CST 4:53 PM CST
Civil Twilight 7:18 AM CST 5:26 PM CST
Nautical Twilight 6:42 AM CST 6:02 PM CST
Astronomical Twilight 6:07 AM CST 6:36 PM CST
Moon 9:12 AM CST (1/3) 8:10 PM CST (1/3)
Length of Visible Light 10h 07m
Length of Day
9h 02m
Waxing Crescent, 8% of the Moon is Illuminated
Jan 3
Waxing Crescent
Jan 7
First Quarter
Jan 15
Full
Jan 23
Last Quarter
Jan 30
New

Hourly Weather History & Observations

Time (CST) Temp. Windchill Dew Point Humidity Pressure Visibility Wind Dir Wind Speed Gust Speed Precip Events Conditions
12:15 AM -16.6 °F -32.9 °F -23.8 °F 70% 30.31 in 10.0 mi South 6.9 mph - N/A   Clear
12:35 AM -14.8 °F -30.8 °F -22.0 °F 70% 30.30 in 10.0 mi South 6.9 mph - N/A   Clear
12:55 AM -13.0 °F -28.6 °F -23.8 °F 59% 30.29 in 10.0 mi SSE 6.9 mph - N/A   Clear
1:15 AM -11.2 °F -27.8 °F -18.4 °F 70% 30.28 in 10.0 mi South 8.1 mph - N/A   Clear
1:35 AM -11.2 °F -27.8 °F -20.2 °F 64% 30.27 in 10.0 mi South 8.1 mph - N/A   Clear
1:55 AM -9.4 °F -27.9 °F -18.4 °F 65% 30.25 in 10.0 mi South 10.4 mph - N/A   Clear
2:15 AM -7.6 °F -27.5 °F -13.0 °F 77% 30.25 in 10.0 mi South 12.7 mph - N/A   Clear
2:35 AM -7.6 °F -28.3 °F -18.4 °F 59% 30.25 in 10.0 mi South 13.8 mph - N/A   Partly Cloudy
2:55 AM -7.6 °F -29.8 °F -16.6 °F 65% 30.22 in 10.0 mi South 16.1 mph - N/A   Mostly Cloudy
3:15 AM -5.8 °F -27.5 °F -16.6 °F 60% 30.20 in 10.0 mi South 16.1 mph - N/A   Mostly Cloudy
3:35 AM -4.0 °F -27.0 °F -14.8 °F 60% 30.18 in 10.0 mi South 19.6 mph - N/A   Partly Cloudy
3:55 AM -4.0 °F -26.4 °F -14.8 °F 60% 30.16 in 10.0 mi South 18.4 mph - N/A   Mostly Cloudy
4:15 AM -2.2 °F -24.7 °F -13.0 °F 60% 30.15 in 10.0 mi South 19.6 mph - N/A   Overcast
4:35 AM -0.4 °F -22.8 °F -13.0 °F 55% 30.13 in 10.0 mi South 20.7 mph - N/A   Mostly Cloudy
4:55 AM -0.4 °F -23.3 °F -11.2 °F 60% 30.12 in 10.0 mi South 21.9 mph 28.8 mph N/A   Overcast
5:15 AM 1.4 °F -21.0 °F -13.0 °F 51% 30.09 in 10.0 mi South 21.9 mph - N/A   Overcast
5:35 AM 1.4 °F -21.0 °F -13.0 °F 51% 30.07 in 9.0 mi South 21.9 mph - N/A   Overcast
5:55 AM 1.4 °F -21.9 °F -14.8 °F 47% 30.06 in 6.0 mi South 24.2 mph 31.1 mph N/A   Overcast
6:15 AM 1.4 °F -21.9 °F 1.4 °F 100% 30.04 in 7.0 mi South 24.2 mph 27.6 mph N/A   Overcast
6:35 AM 1.4 °F -21.9 °F - N/A% 30.02 in 7.0 mi South 24.2 mph 28.8 mph N/A   Overcast
6:55 AM 3.2 °F -19.0 °F -29.2 °F 21% 30.01 in 9.0 mi South 23.0 mph - N/A   Overcast
7:15 AM 3.2 °F -19.9 °F -27.4 °F 23% 30.00 in 7.0 mi South 25.3 mph - N/A   Overcast
7:35 AM 3.2 °F -18.6 °F -25.6 °F 25% 29.99 in 9.0 mi South 21.9 mph 29.9 mph N/A   Overcast
7:55 AM 5.0 °F -16.7 °F -23.8 °F 25% 29.97 in 5.0 mi South 23.0 mph 28.8 mph N/A   Overcast
8:15 AM 6.8 °F -15.5 °F -20.2 °F 28% 29.96 in 5.0 mi South 26.5 mph - N/A   Overcast
8:35 AM 6.8 °F -16.9 °F -18.4 °F 31% 29.93 in 2.0 mi South 31.1 mph 36.8 mph N/A   Overcast
8:55 AM 6.8 °F -15.9 °F -14.8 °F 37% 29.91 in 2.0 mi South 27.6 mph 33.4 mph N/A   Overcast
9:15 AM 6.8 °F -15.5 °F -13.0 °F 40% 29.90 in 3.0 mi South 26.5 mph 35.7 mph N/A   Overcast
9:35 AM 6.8 °F -16.6 °F -11.2 °F 44% 29.88 in 3.0 mi South 29.9 mph 34.5 mph N/A   Overcast
9:55 AM 8.6 °F -13.4 °F -9.4 °F 44% 29.87 in 3.0 mi South 27.6 mph 33.4 mph N/A   Overcast
10:15 AM 8.6 °F -13.4 °F -5.8 °F 52% 29.85 in 3.0 mi South 27.6 mph 33.4 mph N/A   Overcast
10:35 AM 10.4 °F -11.7 °F -4.0 °F 52% 29.84 in 4.0 mi South 29.9 mph 35.7 mph N/A   Overcast
10:55 AM 10.4 °F -11.7 °F -0.4 °F 62% 29.80 in 1.8 mi South 29.9 mph - N/A   Overcast
11:15 AM 12.2 °F -10.5 °F 3.2 °F 67% 29.78 in 1.8 mi South 34.5 mph 39.1 mph N/A   Overcast
11:35 AM 12.2 °F -9.6 °F 3.2 °F 67% 29.73 in 1.8 mi South 31.1 mph 40.3 mph N/A   Overcast
11:55 AM 14.0 °F -7.4 °F -14.8 °F 27% 29.72 in 1.5 mi South 32.2 mph 40.3 mph N/A   Overcast
12:15 PM 15.8 °F -5.0 °F -18.4 °F 21% 29.70 in 2.5 mi South 32.2 mph 36.8 mph N/A   Overcast
12:35 PM 15.8 °F -5.2 °F -13.0 °F 27% 29.68 in 1.5 mi South 33.4 mph 41.4 mph N/A   Overcast
12:55 PM 17.6 °F -2.2 °F -7.6 °F 32% 29.66 in 2.5 mi South 31.1 mph 36.8 mph N/A   Overcast
1:15 PM 19.4 °F 0.8 °F -9.4 °F 28% 29.65 in 3.0 mi South 28.8 mph 39.1 mph N/A   Overcast
1:35 PM 21.2 °F 2.2 °F - N/A% 29.62 in 3.0 mi South 33.4 mph 40.3 mph N/A   Overcast
1:55 PM 21.2 °F 3.3 °F -13.0 °F 22% 29.61 in 3.0 mi South 28.8 mph 38.0 mph N/A   Overcast
2:15 PM 21.2 °F 4.2 °F 21.2 °F 100% 29.61 in 8.0 mi South 25.3 mph 34.5 mph N/A   Overcast
2:35 PM 21.2 °F 4.2 °F 1.4 °F 42% 29.59 in 10.0 mi South 25.3 mph 32.2 mph N/A   Mostly Cloudy
2:55 PM 23.0 °F 6.0 °F 8.6 °F 54% 29.58 in 9.0 mi South 27.6 mph 36.8 mph N/A   Scattered Clouds
3:15 PM 24.8 °F 9.0 °F 12.2 °F 59% 29.57 in 9.0 mi South 25.3 mph 34.5 mph N/A   Partly Cloudy
3:35 PM 24.8 °F 8.1 °F 15.8 °F 69% 29.57 in 5.0 mi South 28.8 mph 41.4 mph N/A   Clear
3:55 PM 24.8 °F 9.0 °F 17.6 °F 74% 29.57 in 9.0 mi South 25.3 mph 34.5 mph N/A   Clear
4:15 PM 24.8 °F 8.7 °F 17.6 °F 74% 29.54 in 9.0 mi South 26.5 mph 35.7 mph N/A   Clear
4:35 PM 24.8 °F 8.4 °F 19.4 °F 80% 29.53 in 10.0 mi South 27.6 mph 35.7 mph N/A   Clear
4:55 PM 24.8 °F 7.9 °F 19.4 °F 80% 29.51 in 7.0 mi South 29.9 mph 38.0 mph N/A   Clear
5:15 PM 24.8 °F 8.7 °F 19.4 °F 80% 29.51 in 8.0 mi South 26.5 mph 34.5 mph N/A   Clear
5:35 PM 24.8 °F 9.3 °F 19.4 °F 80% 29.51 in 10.0 mi South 24.2 mph 34.5 mph N/A   Clear
5:55 PM 24.8 °F 9.0 °F 19.4 °F 80% 29.51 in 10.0 mi South 25.3 mph 31.1 mph N/A   Clear
6:15 PM 24.8 °F 8.7 °F 19.4 °F 80% 29.50 in 10.0 mi South 26.5 mph 32.2 mph N/A   Clear
6:35 PM 26.6 °F 11.7 °F 19.4 °F 74% 29.50 in 10.0 mi South 24.2 mph 29.9 mph N/A   Clear
6:55 PM 26.6 °F 11.4 °F 21.2 °F 80% 29.49 in 10.0 mi South 25.3 mph 31.1 mph N/A   Clear
7:15 PM 26.6 °F 12.7 °F 21.2 °F 80% 29.50 in 10.0 mi South 20.7 mph 27.6 mph N/A   Clear
7:35 PM 26.6 °F 11.7 °F 21.2 °F 80% 29.49 in 10.0 mi South 24.2 mph 28.8 mph N/A   Clear
7:55 PM 26.6 °F 12.0 °F 21.2 °F 80% 29.49 in 10.0 mi South 23.0 mph 27.6 mph N/A   Clear
8:15 PM 26.6 °F 12.7 °F 21.2 °F 80% 29.49 in 10.0 mi SSW 20.7 mph - N/A   Clear
8:35 PM 26.6 °F 13.1 °F 21.2 °F 80% 29.49 in 10.0 mi SSW 19.6 mph 25.3 mph N/A   Clear
8:55 PM 26.6 °F 14.3 °F 21.2 °F 80% 29.49 in 10.0 mi SSW 16.1 mph - N/A   Clear
9:15 PM 26.6 °F 13.8 °F 21.2 °F 80% 29.49 in 10.0 mi South 17.3 mph - N/A   Clear
9:35 PM 26.6 °F 13.4 °F 21.2 °F 80% 29.48 in 10.0 mi South 18.4 mph - N/A   Clear
9:55 PM 26.6 °F 13.8 °F 21.2 °F 80% 29.47 in 10.0 mi SSW 17.3 mph - N/A   Clear
10:15 PM 28.4 °F 16.2 °F 21.2 °F 74% 29.47 in 10.0 mi South 17.3 mph - N/A   Clear
10:35 PM 28.4 °F 16.6 °F 21.2 °F 74% 29.47 in 10.0 mi SSW 16.1 mph - N/A   Clear
10:55 PM 28.4 °F 16.2 °F 23.0 °F 80% 29.47 in 10.0 mi SSW 17.3 mph - N/A   Mostly Cloudy
11:15 PM 28.4 °F 16.6 °F 23.0 °F 80% 29.47 in 10.0 mi SSW 16.1 mph - N/A   Overcast
11:35 PM 30.2 °F 19.8 °F 24.8 °F 80% 29.47 in 9.0 mi SW 13.8 mph - N/A   Overcast
11:55 PM 30.2 °F 19.8 °F 26.6 °F 86% 29.48 in 10.0 mi SW 13.8 mph - N/A   Overcast